Location: L�beck
(53.8752°N, 10.6787°E)
Time: 09:50:51
(UTC+01:00)

ISS - Pass Details

Date: 10 January 2018
Orbit: 401 x 406 km, 51.6° (Epoch: 17 January)

Event Time Altitude Azimuth Distance (km) Brightness Sun altitude
Exits shadow 05:00:03 13° 104° (ESE) 1,292 -0.5 -30.0°
Drops below altitude 10° 05:00:29 10° 103° (ESE) 1,466 -0.2 -29.9°
Sets 05:02:35 0° 99° (E) 2,327 1.2 -29.6°
